Location: *
(43.9905°S, 176.4941°W)
Time: 19:20:45
(UTC+00:00)

Cosmos 1763 Rocket - Pass Details

Date: 08 December 2019
Orbit: 733 x 780 km, 74.0° (Epoch: 25 January)

Event Time Altitude Azimuth Distance (km) Brightness Sun altitude
Exits shadow 10:33:28 36° 327° (NNW) 1,227 4.2 -21.7°
Maximum altitude 10:35:42 75° 249° (WSW) 815 3.6 -21.8°
Drops below altitude 10° 10:41:06 10° 162° (SSE) 2,365 6.8 -22.0°
Sets 10:43:31 0° 160° (SSE) 3,303 7.7 -22.2°
